{"data":{"norad_id":58668,"intl_designator":"2023-211B","name":"STARLINK-31113","alt_names":[],"object_type":"PAYLOAD","status":"ACTIVE","operator":null,"country":"US","launch_date":"2023-12-29","launch_site_code":"AFETR","launch_vehicle":null,"mission":null,"orbit_class":"UNKNOWN","rcs_meters":null,"size_class":null,"mass_kg":null,"dimensions":null,"purposes":["comms"],"wikipedia_slug":null,"has_3d_model":false,"image_url":null,"decayed_at":null,"tle_current":{"epoch":"2026-09-19T19:01:37.884576Z","epoch_age_seconds":210925,"freshness":"STALE","line1":"1 58668U 23211B   26262.79279959  .00000125  00000+0  14063-4 0  9992","line2":"2 58668  43.0049  68.7884 0001499 267.6115  92.4566 15.27578192152150","mean_motion":15.27578192,"eccentricity":0.0001499,"inclination_deg":43.0049,"raan_deg":68.7884,"arg_perigee_deg":267.6115,"mean_anomaly_deg":92.4566,"bstar":1.4063e-5,"rev_number":15215,"period_min":94.266860285212,"perigee_km":482.02601724009,"apogee_km":484.08300245474,"semimajor_km":6861.1915098474,"source":"CELESTRAK","updated_at":"2026-09-21T09:00:33.941906Z"}}}